This is the latest recevied weather packets stored in our database for station/object OK0BH-6. If no packets are shown the sender has not sent any weather packets the latest 1 day(s).
| Time | Temp. | Humidity | Pressure | Rain* | Wind** | Luminosity | Snow |
|---|---|---|---|---|---|---|---|
| 1778101135 | 16.67° C | 41% | 1005.3 hPa | - | - | - | - |
| 1778100560 | 16.67° C | 41% | 1005.2 hPa | - | - | - | - |
| 1778099985 | 16.67° C | 41% | 1005.1 hPa | - | - | - | - |
| 1778096536 | 17.78° C | 40% | 1004.6 hPa | - | - | - | - |
| 1778095961 | 17.78° C | 40% | 1004.5 hPa | - | - | - | - |
| 1778095386 | 18.33° C | 40% | 1004.5 hPa | - | - | - | - |
| 1778092512 | 18.89° C | 39% | 1004.2 hPa | - | - | - | - |
| 1778091937 | 18.89° C | 38% | 1004.1 hPa | - | - | - | - |
| 1778087913 | 20.56° C | 37% | 1004.5 hPa | - | - | - | - |
| 1778087338 | 21.11° C | 37% | 1004.5 hPa | - | - | - | - |
| 1778086763 | 21.11° C | 37% | 1004.4 hPa | - | - | - | - |
| 1778083314 | 22.22° C | 37% | 1005.2 hPa | - | - | - | - |
| 1778082739 | 22.78° C | 36% | 1005.3 hPa | - | - | - | - |
| 1778082164 | 22.78° C | 37% | 1005.4 hPa | - | - | - | - |
| 1778078715 | 23.33° C | 36% | 1005.9 hPa | - | - | - | - |
| 1778078140 | 23.33° C | 36% | 1006.1 hPa | - | - | - | - |
| 1778077565 | 23.33° C | 37% | 1006.3 hPa | - | - | - | - |
| 1778076990 | 23.33° C | 37% | 1006.3 hPa | - | - | - | - |
| 1778074116 | 22.22° C | 38% | 1006.9 hPa | - | - | - | - |
| 1778073541 | 22.22° C | 38% | 1006.8 hPa | - | - | - | - |
| 1778069517 | 22.78° C | 38% | 1007.9 hPa | - | - | - | - |
| 1778068942 | 22.22° C | 38% | 1007.8 hPa | - | - | - | - |
| 1778068367 | 22.22° C | 38% | 1007.9 hPa | - | - | - | - |
| 1778064918 | 22.22° C | 39% | 1008.2 hPa | - | - | - | - |
| 1778064343 | 21.67° C | 39% | 1008.4 hPa | - | - | - | - |
* Rain since midnight (hover to see other rain measurements)
** Current wind speed in m/s (hover to see current wind gust speed)